Back to catalog

COSMOS 1900 DEB

AliveLEO
NORAD 43500·DEBRIS·🇷🇺 Russia

Launched Dec 12, 1987 from Baikonur Cosmodrome

Loading…

Next Passes (next 24 hours)

TLE

FreshSource: Space-Track

Epoch: Sep 13, 2026, 04:10 UTC

1 43500U 87101E   26256.17395924  .00000353  00000-0  93711-4 0  9996
2 43500  66.0841  93.9151 0029058  10.7680 100.3407 14.60757818681426

Track COSMOS 1900 DEB in real time with AllMySat

Download on the App Store